GW1763 Weather Reports


time (UTC)temp
C
wind
direction
speed
KPH
gust
KPH
rain 1hr
cm
rain 24hr
cm
rain mn
cm
humidity
%
barometer
mb
20260505124555 20 0.0 0.0 0.00 0.00 0.00 76 1019.0
20260505124050 20 0.0 0.0 0.00 0.00 0.00 78 1019.1
20260505123553 20 0.0 0.0 0.00 0.00 0.00 80 1018.9
20260505123100 19 0.0 0.0 0.00 0.00 0.00 83 1018.9
20260505122550 19 0.0 0.0 0.00 0.00 0.00 80 1018.9
20260505122050 19 0.0 0.0 0.00 0.00 0.00 82 1018.8
20260505121555 18 0.0 0.0 0.00 0.00 0.00 83 1018.8
20260505121048 18 0.0 0.0 0.00 0.00 0.00 84 1018.7
20260505120550 18 0.0 0.0 0.00 0.00 0.00 85 1018.8
20260505120053 18 0.0 0.0 0.00 0.00 0.00 87 1018.7
20260505115549 17 0.0 0.0 0.00 0.00 0.00 90 1018.7
20260505115050 17 0.0 0.0 0.00 0.00 0.00 90 1018.6
20260505114556 16 0.0 0.0 0.00 0.00 0.00 90 1018.6
20260505114050 16 0.0 0.0 0.00 0.00 0.00 91 1018.5
20260505113548 16 0.0 0.0 0.00 0.00 0.00 91 1018.5
20260505113054 15 0.0 0.0 0.00 0.00 0.00 91 1018.5
20260505112549 15 0.0 0.0 0.00 0.00 0.00 92 1018.4
20260505112048 15 0.0 0.0 0.00 0.00 0.00 92 1018.4
20260505111555 15 0.0 0.0 0.00 0.00 0.00 92 1018.3
20260505111050 14 0.0 0.0 0.00 0.00 0.00 92 1018.2
20260505110547 13 0.0 0.0 0.00 0.00 0.00 92 1018.3
20260505102050 13 0.0 0.0 0.00 0.00 0.00 91 1017.8
20260505101605 13 0.0 0.0 0.00 0.00 0.00 91 1017.7
20260505101053 13 0.0 0.0 0.00 0.00 0.00 91 1017.6
20260505100549 13 0.0 0.0 0.00 0.00 0.00 91 1017.5
20260505095551 13 0.0 0.0 0.00 0.00 0.00 91 1017.5
20260505095050 13 0.0 0.0 0.00 0.00 0.00 91 1017.4
20260505094551 13 0.0 0.0 0.00 0.00 0.00 91 1017.4
20260505094050 13 0.0 0.0 0.00 0.00 0.00 91 1017.3
20260505093551 13 0.0 0.0 0.00 0.00 0.00 90 1017.4
20260505093102 13 0.0 0.0 0.00 0.00 0.00 90 1017.4
20260505092551 13 0.0 0.0 0.00 0.00 0.00 90 1017.3
20260505092050 13 0.0 0.0 0.00 0.00 0.00 90 1017.3
20260505091554 13 0.0 0.0 0.00 0.00 0.00 90 1017.3
20260505091049 13 0.0 0.0 0.00 0.00 0.00 90 1017.2
20260505090550 13 0.0 0.0 0.00 0.00 0.00 90 1017.2
20260505090052 13 0.0 0.0 0.00 0.00 0.00 90 1017.2
20260505085550 13 0.0 0.0 0.00 0.00 0.00 90 1017.2
20260505085051 13 0.0 0.0 0.00 0.00 0.00 89 1017.1
20260505084600 13 0.0 0.0 0.00 0.00 0.00 89 1017.0
20260505084049 13 0.0 0.0 0.00 0.00 0.00 89 1017.1
20260505083551 13 0.0 0.0 0.00 0.00 0.00 89 1017.0
20260505083051 13 0.0 0.0 0.00 0.00 0.00 89 1017.0
20260505082550 13 0.0 0.0 0.00 0.00 0.00 89 1017.0
20260505082050 13 0.0 0.0 0.00 0.00 0.00 89 1017.0
20260505081619 13 0.0 0.0 0.00 0.00 0.00 88 1017.0
20260505081050 13 0.0 0.0 0.00 0.00 0.00 88 1017.0
20260505080553 13 0.0 0.0 0.00 0.00 0.00 88 1017.1
20260505080100 13 0.0 0.0 0.00 0.00 0.00 88 1017.0
20260505075550 13 0.0 0.0 0.00 0.00 0.00 88 1016.9
20260505075050 13 0.0 0.0 0.00 0.00 0.00 88 1016.9
20260505074551 13 0.0 0.0 0.00 0.00 0.00 88 1016.9
20260505074050 13 0.0 0.0 0.00 0.00 0.00 87 1016.9
20260505073548 13 0.0 0.0 0.00 0.00 0.00 87 1016.8
20260505073100 13 0.0 0.0 0.00 0.00 0.00 87 1016.8
20260505072550 13 0.0 0.0 0.00 0.00 0.00 87 1016.7
20260505072050 13 0.0 0.0 0.00 0.00 0.00 87 1016.8
20260505071559 13 0.0 0.0 0.00 0.00 0.00 86 1016.7
20260505071050 13 0.0 0.0 0.00 0.00 0.00 86 1016.7
20260505070552 13 0.0 0.0 0.00 0.00 0.00 86 1016.7
20260505070058 13 0.0 0.0 0.00 0.00 0.00 86 1016.8
20260505065549 13 0.0 0.0 0.00 0.00 0.00 86 1016.8
20260505065050 13 0.0 0.0 0.00 0.00 0.00 85 1016.8
20260505064549 13 0.0 0.0 0.00 0.00 0.00 85 1016.7
20260505064050 13 0.0 0.0 0.00 0.00 0.00 85 1016.8
20260505063548 14 0.0 0.0 0.00 0.00 0.00 85 1016.8
20260505063112 14 0.0 0.0 0.00 0.00 0.00 84 1016.7
20260505062550 14 0.0 0.0 0.00 0.00 0.00 84 1016.7
20260505062051 14 0.0 0.0 0.00 0.00 0.00 84 1016.8
20260505061552 14 0.0 0.0 0.00 0.00 0.00 84 1017.0
20260505061050 14 0.0 0.0 0.00 0.00 0.00 83 1017.0
20260505060548 14 0.0 0.0 0.00 0.00 0.00 83 1017.0
20260505060055 14 0.0 0.0 0.00 0.00 0.00 83 1017.0
20260505055550 14 0.0 0.0 0.00 0.00 0.00 83 1016.9
20260505055050 14 0.0 0.0 0.00 0.00 0.00 83 1016.9
20260505054557 14 0.0 0.0 0.00 0.00 0.00 83 1017.0
20260505054049 14 0.0 0.0 0.00 0.00 0.00 82 1016.9
20260505053550 15 0.0 0.0 0.00 0.00 0.00 82 1016.9
20260505053056 15 0.0 0.0 0.00 0.00 0.00 82 1016.9
20260505052549 15 0.0 0.0 0.00 0.00 0.00 82 1017.0
20260505052050 15 0.0 0.0 0.00 0.00 0.00 82 1017.1
20260505051552 15 0.0 0.0 0.00 0.00 0.00 82 1017.1
20260505051050 15 0.0 0.0 0.00 0.00 0.00 81 1017.0
20260505050549 15 0.0 0.0 0.00 0.00 0.00 81 1017.1
20260505050105 15 0.0 0.0 0.00 0.00 0.00 81 1017.1
20260505041553 15 0.0 0.0 0.00 0.00 0.00 80 1017.0
20260505041050 15 0.0 0.0 0.00 0.00 0.00 80 1016.9
20260505040550 15 0.0 0.0 0.00 0.00 0.00 79 1016.9
20260505040056 15 0.0 0.0 0.00 0.00 0.00 79 1017.0
20260505035549 15 0.0 0.0 0.00 0.00 0.00 78 1017.0
20260505035049 15 0.0 0.0 0.00 0.00 0.00 78 1017.0
20260505034553 15 0.0 0.0 0.00 0.00 0.00 78 1017.1
20260505034050 15 0.0 0.0 0.00 0.00 0.00 77 1017.1
20260505033549 16 0.0 0.0 0.00 0.00 0.00 77 1017.1
20260505033053 16 0.0 0.0 0.00 0.00 0.00 77 1017.1
20260505032550 16 0.0 0.0 0.00 0.00 0.00 76 1017.1
20260505032049 16 0.0 0.0 0.00 0.00 0.00 76 1017.1
20260505031554 16 0.0 0.0 0.00 0.00 0.00 76 1017.1
20260505031050 16 0.0 0.0 0.00 0.00 0.00 76 1017.0
20260505030554 16 0.0 0.0 0.00 0.00 0.00 75 1017.0
20260505030055 16 0.0 0.0 0.00 0.00 0.00 75 1017.1
20260505025550 16 0.0 0.0 0.00 0.00 0.00 75 1017.2
20260505025052 16 0.0 0.0 0.00 0.00 0.00 75 1017.2
20260505024555 16 0.0 0.0 0.00 0.00 0.00 75 1017.2
20260505024049 16 0.0 0.0 0.00 0.00 0.00 75 1017.1
20260505023552 16 0.0 0.0 0.00 0.00 0.00 75 1017.1
20260505023101 16 0.0 0.0 0.00 0.00 0.00 75 1017.1
20260505022547 16 0.0 0.0 0.00 0.00 0.00 74 1017.1
20260505022053 16 0.0 0.0 0.00 0.00 0.00 74 1017.1
20260505021555 16 0.0 0.0 0.00 0.00 0.00 74 1017.1
20260505021049 16 0.0 0.0 0.00 0.00 0.00 74 1017.1
20260505020548 16 0.0 0.0 0.00 0.00 0.00 74 1017.2
20260505020056 16 0.0 0.0 0.00 0.00 0.00 73 1017.2
20260505015550 16 0.0 0.0 0.00 0.00 0.00 73 1017.3
20260505015050 16 0.0 0.0 0.00 0.00 0.00 73 1017.2
20260505014558 16 0.0 0.0 0.00 0.00 0.00 73 1017.2
20260505014049 17 0.0 0.0 0.00 0.00 0.00 73 1017.1
20260505013550 17 0.0 0.0 0.00 0.00 0.00 72 1017.1
20260505013056 17 0.0 0.0 0.00 0.00 0.00 73 1017.1
20260505012550 17 0.0 0.0 0.00 0.00 0.00 72 1016.9
20260505012050 17 0.0 0.0 0.00 0.00 0.00 72 1016.8
20260505011555 17 0.0 0.0 0.00 0.00 0.00 72 1016.7
20260505011049 17 0.0 0.0 0.00 0.00 0.00 72 1016.6
20260505010549 17 0.0 0.0 0.00 0.00 0.00 72 1016.6
20260505010110 17 0.0 0.0 0.00 0.00 0.00 71 1016.5
20260505005548 17 0.0 0.0 0.00 0.00 0.00 71 1016.4
20260505005049 17 0.0 0.0 0.00 0.00 0.00 71 1016.4
20260505004557 17 0.0 0.0 0.00 0.00 0.00 70 1016.3
20260505004051 17 0.0 0.0 0.00 0.00 0.00 70 1016.3
20260505003553 18 0.0 0.0 0.00 0.00 0.00 69 1016.3
20260505003055 18 0.0 0.0 0.00 0.00 0.00 69 1016.2
20260505002551 18 0.0 0.0 0.00 0.00 0.00 68 1016.1
20260505002051 18 0.0 0.0 0.00 0.00 0.00 68 1016.2
20260505001552 18 0.0 0.0 0.00 0.00 0.00 67 1016.2
20260505001053 18 0.0 0.0 0.00 0.00 0.00 67 1016.2
20260505000551 18 0.0 0.0 0.00 0.00 0.00 66 1016.1
20260505000054 18 0.0 0.0 0.00 0.00 0.00 66 1016.0
20260504235550 18 0.0 0.0 0.00 0.00 0.00 66 1016.0
20260504235052 18 0.0 0.0 0.00 0.00 0.00 65 1016.0
20260504234552 19 0.0 0.0 0.00 0.00 0.00 64 1015.9
20260504234051 19 0.0 0.0 0.00 0.00 0.00 64 1015.9
20260504233554 19 0.0 0.0 0.00 0.00 0.00 63 1016.0
20260504233056 19 0.0 0.0 0.00 0.00 0.00 63 1015.8
20260504232553 19 0.0 0.0 0.00 0.00 0.00 62 1015.6
20260504232053 20 0.0 0.0 0.00 0.00 0.00 62 1015.7
20260504231558 20 0.0 0.0 0.00 0.00 0.00 61 1015.7
20260504231051 20 0.0 0.0 0.00 0.00 0.00 61 1015.7
20260504230553 20 0.0 0.0 0.00 0.00 0.00 61 1015.6
20260504230052 20 0.0 0.0 0.00 0.00 0.00 61 1015.5
20260504225551 20 0.0 0.0 0.00 0.00 0.00 60 1015.6
20260504225052 20 0.0 0.0 0.00 0.00 0.00 60 1015.5
20260504224552 20 0.0 0.0 0.00 0.00 0.00 61 1015.5
20260504224051 20 0.0 0.0 0.00 0.00 0.00 60 1015.6
20260504223552 20 0.0 0.0 0.00 0.00 0.00 60 1015.5
20260504223059 20 0.0 0.0 0.00 0.00 0.00 61 1015.5
20260504222555 20 0.0 0.0 0.00 0.00 0.00 61 1015.4
20260504222051 20 0.0 0.0 0.00 0.00 0.00 60 1015.5
20260504221604 20 0.0 0.0 0.00 0.00 0.00 59 1015.4
20260504221051 21 0.0 0.0 0.00 0.00 0.00 60 1015.5
20260504220551 21 0.0 0.0 0.00 0.00 0.00 59 1015.5
20260504220052 21 0.0 0.0 0.00 0.00 0.00 59 1015.5
20260504215551 21 0.0 0.0 0.00 0.00 0.00 59 1015.5
20260504215054 21 0.0 0.0 0.00 0.00 0.00 58 1015.5
20260504214601 21 0.0 0.0 0.00 0.00 0.00 59 1015.5
20260504214051 21 0.0 0.0 0.00 0.00 0.00 59 1015.6
20260504213551 21 0.0 0.0 0.00 0.00 0.00 59 1015.6
20260504213104 21 0.0 0.0 0.00 0.00 0.00 59 1015.5
20260504212549 21 0.0 0.0 0.00 0.00 0.00 59 1015.6
20260504212049 21 0.0 0.0 0.00 0.00 0.00 61 1015.6
20260504211550 21 0.0 0.0 0.00 0.00 0.00 59 1015.5
20260504211047 21 0.0 0.0 0.00 0.00 0.00 58 1015.6
20260504210548 21 0.0 0.0 0.00 0.00 0.00 57 1015.6
20260504210052 22 0.0 0.0 0.00 0.00 0.00 57 1015.7
20260504205549 22 0.0 0.0 0.00 0.00 0.00 57 1015.6
20260504205049 22 0.0 0.0 0.00 0.00 0.00 56 1015.5
20260504204600 22 0.0 0.0 0.00 0.00 0.00 58 1015.6
20260504204049 22 0.0 0.0 0.00 0.00 0.00 56 1015.6
20260504203549 22 0.0 0.0 0.00 0.00 0.00 58 1015.6
20260504203053 22 0.0 0.0 0.00 0.00 0.00 56 1015.7
20260504202549 22 0.0 0.0 0.00 0.00 0.00 57 1015.9
20260504202048 22 0.0 0.0 0.00 0.00 0.00 57 1015.8
20260504201553 22 0.0 0.0 0.00 0.00 0.00 57 1015.8
20260504201049 22 0.0 0.0 0.00 0.00 0.00 58 1015.7
20260504200549 22 0.0 0.0 0.00 0.00 0.00 57 1015.7
20260504200050 22 0.0 0.0 0.00 0.00 0.00 58 1015.8
20260504195549 22 0.0 0.0 0.00 0.00 0.00 57 1015.8
20260504195049 22 0.0 0.0 0.00 0.00 0.00 58 1015.8
20260504194557 22 0.0 0.0 0.00 0.00 0.00 57 1015.6
20260504194048 22 0.0 0.0 0.00 0.00 0.00 57 1015.8
20260504193553 23 0.0 0.0 0.00 0.00 0.00 56 1015.9
20260504193057 22 0.0 0.0 0.00 0.00 0.00 56 1015.9
20260504192549 23 0.0 0.0 0.00 0.00 0.00 58 1015.9
20260504192049 23 0.0 0.0 0.00 0.00 0.00 59 1015.8
20260504191551 23 0.0 0.0 0.00 0.00 0.00 56 1016.0
20260504191049 23 0.0 0.0 0.00 0.00 0.00 57 1015.9
20260504190549 23 0.0 0.0 0.00 0.00 0.00 56 1015.9
20260504190054 23 0.0 0.0 0.00 0.00 0.00 56 1016.0
20260504185549 23 0.0 0.0 0.00 0.00 0.00 58 1016.2
20260504185049 23 0.0 0.0 0.00 0.00 0.00 57 1016.3
20260504184553 23 0.0 0.0 0.00 0.00 0.00 58 1016.3
20260504184049 23 0.0 0.0 0.00 0.00 0.00 56 1016.4
20260504183550 23 0.0 0.0 0.00 0.00 0.00 57 1016.4
20260504183054 23 0.0 0.0 0.00 0.00 0.00 56 1016.5
20260504182549 22 0.0 0.0 0.00 0.00 0.00 57 1016.6
20260504182047 23 0.0 0.0 0.00 0.00 0.00 55 1016.7
20260504181551 23 0.0 0.0 0.00 0.00 0.00 54 1016.7
20260504181058 23 0.0 0.0 0.00 0.00 0.00 52 1016.6
20260504180552 23 0.0 0.0 0.00 0.00 0.00 55 1016.5
20260504180057 23 0.0 0.0 0.00 0.00 0.00 52 1016.6
20260504175551 23 0.0 0.0 0.00 0.00 0.00 49 1016.5
20260504175051 23 0.0 0.0 0.00 0.00 0.00 47 1016.6
20260504174558 23 0.0 0.0 0.00 0.00 0.00 48 1016.4
20260504174051 23 0.0 0.0 0.00 0.00 0.00 48 1016.4
20260504173549 23 0.0 0.0 0.00 0.00 0.00 51 1016.5
20260504173053 23 0.0 0.0 0.00 0.00 0.00 49 1016.6
20260504172550 22 0.0 0.0 0.00 0.00 0.00 48 1016.6
20260504172052 22 0.0 0.0 0.00 0.00 0.00 49 1016.7
20260504171558 22 0.0 0.0 0.00 0.00 0.00 50 1016.8
20260504171052 22 0.0 0.0 0.00 0.00 0.00 50 1016.8
20260504170554 23 0.0 0.0 0.00 0.00 0.00 48 1016.8
20260504151049 21 0.0 0.0 0.00 0.00 0.00 54 1018.0
20260504150551 21 0.0 0.0 0.00 0.00 0.00 56 1018.1
20260504150109 21 0.0 0.0 0.00 0.00 0.00 59 1018.0
20260504141047 20 0.0 0.0 0.00 0.00 0.00 61 1018.2
20260504140550 20 0.0 0.0 0.00 0.00 0.00 62 1018.1